Time,TemperatureF,DewpointF,PressureIn,WindDirection,WindDirectionDegrees,WindSpeedMPH,WindSpeedGustMPH,Humidity,HourlyPrecipIn,Conditions,Clouds,dailyrainin,SoftwareType,DateUTC
2013-05-25 00:01:00,68.1,54.2,30.17,NNE,19,0.0,0.0,61,0.00,,---,0.00,VWS V13.01,2013-05-25 05:01:00,
2013-05-25 00:06:00,67.7,54.2,30.17,NNE,19,0.0,0.0,62,0.00,,---,0.00,VWS V13.01,2013-05-25 05:06:00,
2013-05-25 00:11:00,67.6,54.1,30.17,NNE,19,1.0,1.0,62,0.00,,---,0.00,VWS V13.01,2013-05-25 05:11:00,
2013-05-25 00:16:00,67.5,54.0,30.17,NNE,19,0.0,1.0,62,0.00,,---,0.00,VWS V13.01,2013-05-25 05:16:00,
2013-05-25 00:21:00,67.4,54.4,30.17,NNE,19,0.0,1.0,63,0.00,,---,0.00,VWS V13.01,2013-05-25 05:21:00,
2013-05-25 00:26:00,67.2,54.2,30.17,NNE,24,1.0,1.0,63,0.00,,---,0.00,VWS V13.01,2013-05-25 05:26:00,
2013-05-25 00:31:00,67.0,54.0,30.17,NNE,26,0.0,2.0,63,0.00,,---,0.00,VWS V13.01,2013-05-25 05:31:00,
2013-05-25 00:36:00,66.8,54.2,30.16,ENE,58,0.0,3.0,64,0.00,,---,0.00,VWS V13.01,2013-05-25 05:36:00,
2013-05-25 00:41:00,66.6,54.1,30.16,North,9,0.0,0.0,64,0.00,,---,0.00,VWS V13.01,2013-05-25 05:41:00,
2013-05-25 00:46:00,66.4,53.9,30.16,North,10,0.0,0.0,64,0.00,,---,0.00,VWS V13.01,2013-05-25 05:46:00,
2013-05-25 00:51:00,66.2,54.1,30.16,North,10,0.0,0.0,65,0.00,,---,0.00,VWS V13.01,2013-05-25 05:51:00,
2013-05-25 00:56:00,66.0,53.9,30.16,North,10,0.0,0.0,65,0.00,,---,0.00,VWS V13.01,2013-05-25 05:56:00,
2013-05-25 01:01:00,65.8,54.1,30.16,NNE,30,0.0,1.0,66,0.00,,---,0.00,VWS V13.01,2013-05-25 06:01:00,
2013-05-25 01:06:00,65.5,53.8,30.16,ENE,61,0.0,2.0,66,0.00,,---,0.00,VWS V13.01,2013-05-25 06:06:00,
2013-05-25 01:11:00,65.3,53.7,30.17,NE,40,0.0,2.0,66,0.00,,---,0.00,VWS V13.01,2013-05-25 06:11:00,
2013-05-25 01:16:00,65.2,54.0,30.17,NNE,33,0.0,1.0,67,0.00,,---,0.00,VWS V13.01,2013-05-25 06:16:00,
2013-05-25 01:21:00,65.0,53.8,30.17,NNE,23,0.0,0.0,67,0.00,,---,0.00,VWS V13.01,2013-05-25 06:21:00,
2013-05-25 01:26:00,64.9,53.7,30.17,NNE,28,0.0,3.0,67,0.00,,---,0.00,VWS V13.01,2013-05-25 06:26:00,
2013-05-25 01:31:00,64.8,53.6,30.16,NNE,22,0.0,0.0,67,0.00,,---,0.00,VWS V13.01,2013-05-25 06:31:00,
2013-05-25 01:36:00,64.6,53.4,30.16,NNE,29,0.0,0.0,67,0.00,,---,0.00,VWS V13.01,2013-05-25 06:36:00,
2013-05-25 01:41:00,64.5,53.3,30.16,NNE,26,0.0,3.0,67,0.00,,---,0.00,VWS V13.01,2013-05-25 06:41:00,
2013-05-25 01:46:00,64.3,53.5,30.16,NNE,32,0.0,0.0,68,0.00,,---,0.00,VWS V13.01,2013-05-25 06:46:00,
2013-05-25 01:51:00,64.1,53.3,30.16,NNE,17,0.0,0.0,68,0.00,,---,0.00,VWS V13.01,2013-05-25 06:51:00,
2013-05-25 01:56:00,64.0,53.2,30.16,NNE,19,0.0,2.0,68,0.00,,---,0.00,VWS V13.01,2013-05-25 06:56:00,
2013-05-25 02:01:00,63.8,53.0,30.16,NNE,32,0.0,0.0,68,0.00,,---,0.00,VWS V13.01,2013-05-25 07:01:00,
2013-05-25 02:06:00,63.6,53.3,30.16,NNE,31,1.0,2.0,69,0.00,,---,0.00,VWS V13.01,2013-05-25 07:06:00,
2013-05-25 02:11:00,63.5,53.5,30.16,NNE,24,0.0,1.0,70,0.00,,---,0.00,VWS V13.01,2013-05-25 07:11:00,
2013-05-25 02:16:00,63.3,53.4,30.16,North,5,3.0,3.0,70,0.00,,---,0.00,VWS V13.01,2013-05-25 07:16:00,
2013-05-25 02:21:00,63.1,53.2,30.16,NNE,28,0.0,0.0,70,0.00,,---,0.00,VWS V13.01,2013-05-25 07:21:00,
2013-05-25 02:26:00,62.9,53.0,30.16,NNE,28,2.0,2.0,70,0.00,,---,0.00,VWS V13.01,2013-05-25 07:26:00,
2013-05-25 02:31:00,62.8,52.9,30.16,NE,35,0.0,5.0,70,0.00,,---,0.00,VWS V13.01,2013-05-25 07:31:00,
2013-05-25 02:36:00,62.7,52.8,30.16,NNE,28,0.0,0.0,70,0.00,,---,0.00,VWS V13.01,2013-05-25 07:36:00,
2013-05-25 02:41:00,62.5,52.6,30.16,NE,34,0.0,1.0,70,0.00,,---,0.00,VWS V13.01,2013-05-25 07:41:00,
2013-05-25 02:46:00,62.4,52.9,30.16,NE,34,0.0,0.0,71,0.00,,---,0.00,VWS V13.01,2013-05-25 07:46:00,
2013-05-25 02:51:00,62.2,52.7,30.16,NNE,30,0.0,0.0,71,0.00,,---,0.00,VWS V13.01,2013-05-25 07:51:00,
2013-05-25 02:56:00,62.1,52.6,30.16,NNE,21,1.0,1.0,71,0.00,,---,0.00,VWS V13.01,2013-05-25 07:56:00,
2013-05-25 03:01:00,62.0,52.5,30.16,NNE,21,0.0,0.0,71,0.00,,---,0.00,VWS V13.01,2013-05-25 08:01:00,
2013-05-25 03:06:00,61.8,52.3,30.16,NNE,21,3.0,3.0,71,0.00,,---,0.00,VWS V13.01,2013-05-25 08:06:00,
2013-05-25 03:11:00,61.8,52.3,30.17,NNE,30,1.0,1.0,71,0.00,,---,0.00,VWS V13.01,2013-05-25 08:11:00,
2013-05-25 03:16:00,61.8,52.3,30.17,NNE,30,0.0,0.0,71,0.00,,---,0.00,VWS V13.01,2013-05-25 08:16:00,
2013-05-25 03:21:00,61.6,52.1,30.17,NNE,30,0.0,0.0,71,0.00,,---,0.00,VWS V13.01,2013-05-25 08:21:00,
2013-05-25 03:26:00,61.4,51.9,30.17,NNE,30,0.0,1.0,71,0.00,,---,0.00,VWS V13.01,2013-05-25 08:26:00,
2013-05-25 03:31:00,61.2,51.7,30.18,NNE,30,0.0,1.0,71,0.00,,---,0.00,VWS V13.01,2013-05-25 08:31:00,
2013-05-25 03:36:00,61.0,51.9,30.18,NNE,30,0.0,0.0,72,0.00,,---,0.00,VWS V13.01,2013-05-25 08:36:00,
2013-05-25 03:41:00,60.8,51.7,30.18,NNE,30,0.0,1.0,72,0.00,,---,0.00,VWS V13.01,2013-05-25 08:41:00,
2013-05-25 03:46:00,60.7,51.6,30.18,NNE,13,0.0,3.0,72,0.00,,---,0.00,VWS V13.01,2013-05-25 08:46:00,
2013-05-25 03:51:00,60.5,51.4,30.18,NNE,13,0.0,2.0,72,0.00,,---,0.00,VWS V13.01,2013-05-25 08:51:00,
2013-05-25 03:56:00,60.3,51.2,30.18,NNE,24,0.0,0.0,72,0.00,,---,0.00,VWS V13.01,2013-05-25 08:56:00,
2013-05-25 04:01:00,60.2,51.2,30.18,NNE,27,1.0,1.0,72,0.00,,---,0.00,VWS V13.01,2013-05-25 09:01:00,
2013-05-25 04:06:00,60.2,51.2,30.18,NNE,31,1.0,3.0,72,0.00,,---,0.00,VWS V13.01,2013-05-25 09:06:00,
2013-05-25 04:11:00,60.1,51.1,30.18,North,11,0.0,0.0,72,0.00,,---,0.00,VWS V13.01,2013-05-25 09:11:00,
2013-05-25 04:16:00,60.0,51.0,30.18,NE,42,0.0,0.0,72,0.00,,---,0.00,VWS V13.01,2013-05-25 09:16:00,
2013-05-25 04:21:00,59.9,50.9,30.18,NNE,25,0.0,3.0,72,0.00,,---,0.00,VWS V13.01,2013-05-25 09:21:00,
2013-05-25 04:26:00,59.8,50.8,30.19,NNE,23,0.0,1.0,72,0.00,,---,0.00,VWS V13.01,2013-05-25 09:26:00,
2013-05-25 04:31:00,59.7,51.0,30.19,NNE,20,0.0,0.0,73,0.00,,---,0.00,VWS V13.01,2013-05-25 09:31:00,
2013-05-25 04:36:00,59.6,51.0,30.19,NE,44,0.0,2.0,73,0.00,,---,0.00,VWS V13.01,2013-05-25 09:36:00,
2013-05-25 04:41:00,59.5,50.8,30.19,NNE,22,0.0,0.0,73,0.00,,---,0.00,VWS V13.01,2013-05-25 09:41:00,
2013-05-25 04:46:00,59.3,50.7,30.19,NNE,22,0.0,0.0,73,0.00,,---,0.00,VWS V13.01,2013-05-25 09:46:00,
2013-05-25 04:51:00,59.3,50.7,30.20,NNE,21,0.0,2.0,73,0.00,,---,0.00,VWS V13.01,2013-05-25 09:51:00,
2013-05-25 04:56:00,59.3,50.7,30.20,NNE,18,0.0,2.0,73,0.00,,---,0.00,VWS V13.01,2013-05-25 09:56:00,
2013-05-25 05:01:00,59.2,50.6,30.20,NE,49,0.0,0.0,73,0.00,,---,0.00,VWS V13.01,2013-05-25 10:01:00,
2013-05-25 05:06:00,59.2,50.6,30.20,NNE,13,0.0,1.0,73,0.00,,---,0.00,VWS V13.01,2013-05-25 10:06:00,
2013-05-25 05:11:00,59.2,50.6,30.20,NNE,30,0.0,1.0,73,0.00,,---,0.00,VWS V13.01,2013-05-25 10:11:00,
2013-05-25 05:16:00,59.1,50.5,30.20,NNE,17,0.0,1.0,73,0.00,,---,0.00,VWS V13.01,2013-05-25 10:16:00,
2013-05-25 05:21:00,59.1,50.5,30.21,NNE,17,3.0,3.0,73,0.00,,---,0.00,VWS V13.01,2013-05-25 10:21:00,
2013-05-25 05:26:00,59.0,50.4,30.21,NNE,20,0.0,6.0,73,0.00,,---,0.00,VWS V13.01,2013-05-25 10:26:00,
2013-05-25 05:31:00,58.9,50.3,30.21,NNE,26,0.0,0.0,73,0.00,,---,0.00,VWS V13.01,2013-05-25 10:31:00,
2013-05-25 05:36:00,58.9,50.3,30.21,NE,34,1.0,3.0,73,0.00,,---,0.00,VWS V13.01,2013-05-25 10:36:00,
2013-05-25 05:41:00,58.8,50.2,30.21,NNE,23,0.0,2.0,73,0.00,,---,0.00,VWS V13.01,2013-05-25 10:41:00,
2013-05-25 05:46:00,58.8,49.8,30.21,North,5,0.0,4.0,72,0.00,,---,0.00,VWS V13.01,2013-05-25 10:46:00,
2013-05-25 05:51:00,58.8,49.8,30.22,NNE,24,0.0,3.0,72,0.00,,---,0.00,VWS V13.01,2013-05-25 10:51:00,
2013-05-25 05:56:00,58.9,49.9,30.22,NNE,17,3.0,5.0,72,0.00,,---,0.00,VWS V13.01,2013-05-25 10:56:00,
2013-05-25 06:01:00,58.9,49.5,30.22,NE,49,0.0,3.0,71,0.00,,---,0.00,VWS V13.01,2013-05-25 11:01:00,
2013-05-25 06:06:00,59.0,49.6,30.22,NNE,29,0.0,3.0,71,0.00,,---,0.00,VWS V13.01,2013-05-25 11:06:00,
2013-05-25 06:11:00,59.0,49.6,30.22,NE,39,2.0,6.0,71,0.00,,---,0.00,VWS V13.01,2013-05-25 11:11:00,
2013-05-25 06:16:00,59.0,49.6,30.22,NNE,23,0.0,1.0,71,0.00,,---,0.00,VWS V13.01,2013-05-25 11:16:00,
2013-05-25 06:21:00,59.1,49.7,30.23,North,360,1.0,5.0,71,0.00,,---,0.00,VWS V13.01,2013-05-25 11:21:00,
2013-05-25 06:26:00,59.3,49.9,30.23,NNE,31,0.0,1.0,71,0.00,,---,0.00,VWS V13.01,2013-05-25 11:26:00,
2013-05-25 06:31:00,59.6,49.8,30.23,NNE,19,6.0,7.0,70,0.00,,---,0.00,VWS V13.01,2013-05-25 11:31:00,
2013-05-25 06:36:00,59.9,50.1,30.23,NNE,22,0.0,0.0,70,0.00,,---,0.00,VWS V13.01,2013-05-25 11:36:00,
2013-05-25 06:41:00,60.2,50.0,30.23,NNE,22,0.0,1.0,69,0.00,,---,0.00,VWS V13.01,2013-05-25 11:41:00,
2013-05-25 06:46:00,60.7,50.5,30.23,NNE,16,0.0,6.0,69,0.00,,---,0.00,VWS V13.01,2013-05-25 11:46:00,
2013-05-25 06:51:00,61.0,50.4,30.24,NE,50,1.0,1.0,68,0.00,,---,0.00,VWS V13.01,2013-05-25 11:51:00,
2013-05-25 06:56:00,61.3,50.3,30.24,NE,34,1.0,5.0,67,0.00,,---,0.00,VWS V13.01,2013-05-25 11:56:00,
2013-05-25 07:01:00,61.6,50.1,30.24,NE,49,0.0,0.0,66,0.00,,---,0.00,VWS V13.01,2013-05-25 12:01:00,
2013-05-25 07:06:00,62.0,50.1,30.24,ENE,67,0.0,0.0,65,0.00,,---,0.00,VWS V13.01,2013-05-25 12:06:00,
2013-05-25 07:11:00,62.3,50.4,30.24,NE,34,0.0,4.0,65,0.00,,---,0.00,VWS V13.01,2013-05-25 12:11:00,
2013-05-25 07:16:00,62.5,50.2,30.24,NNE,17,1.0,7.0,64,0.00,,---,0.00,VWS V13.01,2013-05-25 12:16:00,
2013-05-25 07:21:00,62.8,50.5,30.24,ENE,63,4.0,4.0,64,0.00,,---,0.00,VWS V13.01,2013-05-25 12:21:00,
2013-05-25 07:26:00,63.0,50.7,30.24,NE,42,2.0,7.0,64,0.00,,---,0.00,VWS V13.01,2013-05-25 12:26:00,
2013-05-25 07:31:00,63.2,50.8,30.25,NNE,22,0.0,4.0,64,0.00,,---,0.00,VWS V13.01,2013-05-25 12:31:00,
2013-05-25 07:36:00,63.0,51.1,30.25,NE,48,0.0,1.0,65,0.00,,---,0.00,VWS V13.01,2013-05-25 12:36:00,
2013-05-25 07:41:00,63.1,51.6,30.24,ENE,67,2.0,8.0,66,0.00,,---,0.00,VWS V13.01,2013-05-25 12:41:00,
2013-05-25 07:46:00,63.3,51.3,30.24,ENE,73,0.0,0.0,65,0.00,,---,0.00,VWS V13.01,2013-05-25 12:46:00,
2013-05-25 07:51:00,63.6,51.6,30.24,NNE,28,0.0,9.0,65,0.00,,---,0.00,VWS V13.01,2013-05-25 12:51:00,
2013-05-25 07:56:00,64.1,52.1,30.24,ENE,59,3.0,5.0,65,0.00,,---,0.00,VWS V13.01,2013-05-25 12:56:00,
2013-05-25 08:01:00,64.6,52.2,30.25,East,86,0.0,1.0,64,0.00,,---,0.00,VWS V13.01,2013-05-25 13:01:00,
2013-05-25 08:06:00,65.2,52.3,30.25,NE,36,5.0,5.0,63,0.00,,---,0.00,VWS V13.01,2013-05-25 13:06:00,
2013-05-25 08:11:00,65.5,52.2,30.25,NE,52,0.0,0.0,62,0.00,,---,0.00,VWS V13.01,2013-05-25 13:11:00,
2013-05-25 08:16:00,66.3,52.9,30.25,ENE,60,1.0,2.0,62,0.00,,---,0.00,VWS V13.01,2013-05-25 13:16:00,
2013-05-25 08:21:00,66.5,52.7,30.24,ENE,74,2.0,3.0,61,0.00,,---,0.00,VWS V13.01,2013-05-25 13:21:00,
2013-05-25 08:26:00,66.9,53.0,30.25,NNE,22,6.0,6.0,61,0.00,,---,0.00,VWS V13.01,2013-05-25 13:26:00,
2013-05-25 08:31:00,67.8,53.4,30.24,ENE,72,4.0,6.0,60,0.00,,---,0.00,VWS V13.01,2013-05-25 13:31:00,
2013-05-25 08:36:00,68.5,53.6,30.25,SE,126,1.0,1.0,59,0.00,,---,0.00,VWS V13.01,2013-05-25 13:36:00,
2013-05-25 08:41:00,69.4,54.0,30.25,East,83,5.0,5.0,58,0.00,,---,0.00,VWS V13.01,2013-05-25 13:41:00,
2013-05-25 08:46:00,70.3,54.8,30.25,ESE,110,0.0,0.0,58,0.00,,---,0.00,VWS V13.01,2013-05-25 13:46:00,
2013-05-25 08:51:00,70.8,53.8,30.25,ENE,78,0.0,6.0,55,0.00,,---,0.00,VWS V13.01,2013-05-25 13:51:00,
2013-05-25 08:56:00,71.1,55.1,30.25,East,80,3.0,6.0,57,0.00,,---,0.00,VWS V13.01,2013-05-25 13:56:00,
2013-05-25 09:01:00,72.1,54.6,30.25,NE,42,0.0,0.0,54,0.00,,---,0.00,VWS V13.01,2013-05-25 14:01:00,
2013-05-25 09:06:00,72.8,55.7,30.25,ENE,76,5.0,5.0,55,0.00,,---,0.00,VWS V13.01,2013-05-25 14:06:00,
2013-05-25 09:11:00,73.5,55.9,30.25,East,90,5.0,5.0,54,0.00,,---,0.00,VWS V13.01,2013-05-25 14:11:00,
2013-05-25 09:16:00,74.5,57.3,30.25,ESE,121,0.0,0.0,55,0.00,,---,0.00,VWS V13.01,2013-05-25 14:16:00,
2013-05-25 09:21:00,74.7,56.5,30.25,East,94,0.0,1.0,53,0.00,,---,0.00,VWS V13.01,2013-05-25 14:21:00,
2013-05-25 09:26:00,75.1,56.3,30.26,East,85,0.0,1.0,52,0.00,,---,0.00,VWS V13.01,2013-05-25 14:26:00,
2013-05-25 09:31:00,74.9,55.0,30.26,NE,49,2.0,5.0,50,0.00,,---,0.00,VWS V13.01,2013-05-25 14:31:00,
2013-05-25 09:36:00,75.2,56.9,30.25,NE,51,1.0,1.0,53,0.00,,---,0.00,VWS V13.01,2013-05-25 14:36:00,
2013-05-25 09:41:00,76.0,56.0,30.25,NNE,12,1.0,4.0,50,0.00,,---,0.00,VWS V13.01,2013-05-25 14:41:00,
2013-05-25 09:46:00,76.0,55.5,30.26,NNE,16,4.0,4.0,49,0.00,,---,0.00,VWS V13.01,2013-05-25 14:46:00,
2013-05-25 09:51:00,76.3,56.3,30.26,NE,34,0.0,1.0,50,0.00,,---,0.00,VWS V13.01,2013-05-25 14:51:00,
2013-05-25 09:56:00,76.7,57.8,30.26,NE,50,0.0,7.0,52,0.00,,---,0.00,VWS V13.01,2013-05-25 14:56:00,
2013-05-25 10:01:00,77.0,57.5,30.26,ENE,63,1.0,2.0,51,0.00,,---,0.00,VWS V13.01,2013-05-25 15:01:00,
2013-05-25 10:06:00,77.5,55.7,30.25,NE,44,0.0,5.0,47,0.00,,---,0.00,VWS V13.01,2013-05-25 15:06:00,
2013-05-25 10:10:00,77.3,55.5,30.25,NNE,27,5.0,6.0,47,0.00,,---,0.00,VWS V13.01,2013-05-25 15:10:00,
2013-05-25 10:15:00,78.3,55.8,30.26,ENE,59,1.0,3.0,46,0.00,,---,0.00,VWS V13.01,2013-05-25 15:15:00,
2013-05-25 10:20:00,78.9,57.0,30.25,NNE,33,0.0,0.0,47,0.00,,---,0.00,VWS V13.01,2013-05-25 15:20:00,
2013-05-25 10:25:00,79.6,55.8,30.25,NE,49,0.0,4.0,44,0.00,,---,0.00,VWS V13.01,2013-05-25 15:25:00,
2013-05-25 10:30:00,79.6,58.2,30.26,NE,53,3.0,5.0,48,0.00,,---,0.00,VWS V13.01,2013-05-25 15:30:00,
2013-05-25 10:35:00,79.2,55.4,30.26,East,85,0.0,0.0,44,0.00,,---,0.00,VWS V13.01,2013-05-25 15:35:00,
2013-05-25 10:40:00,78.8,55.7,30.26,ENE,71,6.0,6.0,45,0.00,,---,0.00,VWS V13.01,2013-05-25 15:40:00,
2013-05-25 10:45:00,80.0,58.0,30.26,NE,40,4.0,4.0,47,0.00,,---,0.00,VWS V13.01,2013-05-25 15:45:00,
2013-05-25 10:50:00,80.3,55.8,30.26,ENE,66,3.0,3.0,43,0.00,,---,0.00,VWS V13.01,2013-05-25 15:50:00,
2013-05-25 10:55:00,80.8,55.6,30.26,NE,50,0.0,0.0,42,0.00,,---,0.00,VWS V13.01,2013-05-25 15:55:00,
2013-05-25 11:00:00,81.1,54.5,30.26,NE,51,2.0,5.0,40,0.00,,---,0.00,VWS V13.01,2013-05-25 16:00:00,
2013-05-25 11:05:00,81.2,55.3,30.26,East,80,9.0,11.0,41,0.00,,---,0.00,VWS V13.01,2013-05-25 16:05:00,
2013-05-25 11:10:00,82.2,54.8,30.26,East,90,0.0,11.0,39,0.00,,---,0.00,VWS V13.01,2013-05-25 16:10:00,
2013-05-25 11:15:00,81.8,53.7,30.26,East,92,0.0,2.0,38,0.00,,---,0.00,VWS V13.01,2013-05-25 16:15:00,
2013-05-25 11:20:00,81.7,58.3,30.26,ENE,60,1.0,4.0,45,0.00,,---,0.00,VWS V13.01,2013-05-25 16:20:00,
2013-05-25 11:25:00,82.6,55.9,30.25,NE,46,0.0,4.0,40,0.00,,---,0.00,VWS V13.01,2013-05-25 16:25:00,
2013-05-25 11:30:00,82.3,55.6,30.25,ENE,76,0.0,6.0,40,0.00,,---,0.00,VWS V13.01,2013-05-25 16:30:00,
2013-05-25 11:35:00,81.1,58.4,30.25,ENE,57,1.0,9.0,46,0.00,,---,0.00,VWS V13.01,2013-05-25 16:35:00,
2013-05-25 11:40:00,81.6,55.0,30.25,NE,41,0.0,7.0,40,0.00,,---,0.00,VWS V13.01,2013-05-25 16:40:00,
2013-05-25 11:45:00,80.9,53.7,30.25,ENE,76,0.0,5.0,39,0.00,,---,0.00,VWS V13.01,2013-05-25 16:45:00,
2013-05-25 11:50:00,81.1,57.2,30.25,East,87,3.0,3.0,44,0.00,,---,0.00,VWS V13.01,2013-05-25 16:50:00,
2013-05-25 11:55:00,82.2,56.2,30.25,ENE,57,0.0,6.0,41,0.00,,---,0.00,VWS V13.01,2013-05-25 16:55:00,
2013-05-25 12:00:00,83.0,56.9,30.25,NE,46,0.0,10.0,41,0.00,,---,0.00,VWS V13.01,2013-05-25 17:00:00,
2013-05-25 12:05:00,83.1,55.6,30.24,East,92,1.0,5.0,39,0.00,,---,0.00,VWS V13.01,2013-05-25 17:05:00,
2013-05-25 12:10:00,84.3,53.7,30.23,East,87,0.0,5.0,35,0.00,,---,0.00,VWS V13.01,2013-05-25 17:10:00,
2013-05-25 12:15:00,84.0,54.2,30.24,East,87,0.0,1.0,36,0.00,,---,0.00,VWS V13.01,2013-05-25 17:15:00,
2013-05-25 12:20:00,83.6,56.8,30.24,ENE,71,0.0,1.0,40,0.00,,---,0.00,VWS V13.01,2013-05-25 17:20:00,
2013-05-25 12:25:00,84.0,54.2,30.24,ENE,61,0.0,4.0,36,0.00,,---,0.00,VWS V13.01,2013-05-25 17:25:00,
2013-05-25 12:30:00,83.8,55.5,30.23,NNW,331,0.0,4.0,38,0.00,,---,0.00,VWS V13.01,2013-05-25 17:30:00,
2013-05-25 12:35:00,83.9,53.3,30.23,East,94,0.0,10.0,35,0.00,,---,0.00,VWS V13.01,2013-05-25 17:35:00,
2013-05-25 12:40:00,84.9,54.2,30.23,NNE,24,4.0,7.0,35,0.00,,---,0.00,VWS V13.01,2013-05-25 17:40:00,
2013-05-25 12:45:00,84.4,55.3,30.22,ENE,58,1.0,6.0,37,0.00,,---,0.00,VWS V13.01,2013-05-25 17:45:00,
2013-05-25 12:50:00,84.5,54.6,30.22,ENE,58,0.0,1.0,36,0.00,,---,0.00,VWS V13.01,2013-05-25 17:50:00,
2013-05-25 12:55:00,85.3,56.1,30.22,NNE,13,0.0,7.0,37,0.00,,---,0.00,VWS V13.01,2013-05-25 17:55:00,
2013-05-25 13:00:00,85.1,54.4,30.22,NE,36,4.0,9.0,35,0.00,,---,0.00,VWS V13.01,2013-05-25 18:00:00,
2013-05-25 13:05:00,86.0,56.0,30.21,ESE,107,4.0,5.0,36,0.00,,---,0.00,VWS V13.01,2013-05-25 18:05:00,
2013-05-25 13:10:00,85.9,53.5,30.21,ENE,57,1.0,5.0,33,0.00,,---,0.00,VWS V13.01,2013-05-25 18:10:00,
2013-05-25 13:15:00,85.6,53.2,30.21,ENE,57,0.0,1.0,33,0.00,,---,0.00,VWS V13.01,2013-05-25 18:15:00,
2013-05-25 13:20:00,85.7,55.7,30.21,North,360,2.0,2.0,36,0.00,,---,0.00,VWS V13.01,2013-05-25 18:20:00,
2013-05-25 13:25:00,86.1,56.8,30.20,NNE,26,0.0,5.0,37,0.00,,---,0.00,VWS V13.01,2013-05-25 18:25:00,
2013-05-25 13:30:00,86.2,52.0,30.20,East,82,0.0,3.0,31,0.00,,---,0.00,VWS V13.01,2013-05-25 18:30:00,
2013-05-25 13:35:00,86.1,54.5,30.20,SSW,202,0.0,4.0,34,0.00,,---,0.00,VWS V13.01,2013-05-25 18:35:00,
2013-05-25 13:40:00,86.2,54.6,30.20,NNE,19,0.0,5.0,34,0.00,,---,0.00,VWS V13.01,2013-05-25 18:40:00,
2013-05-25 13:45:00,86.2,58.4,30.20,SSW,194,2.0,5.0,39,0.00,,---,0.00,VWS V13.01,2013-05-25 18:45:00,
2013-05-25 13:50:00,86.8,54.3,30.19,NW,320,0.0,6.0,33,0.00,,---,0.00,VWS V13.01,2013-05-25 18:50:00,
2013-05-25 13:55:00,86.0,54.4,30.19,NW,305,0.0,2.0,34,0.00,,---,0.00,VWS V13.01,2013-05-25 18:55:00,
2013-05-25 14:00:00,86.4,53.9,30.19,ENE,69,0.0,3.0,33,0.00,,---,0.00,VWS V13.01,2013-05-25 19:00:00,
2013-05-25 14:05:00,87.1,55.4,30.19,SW,225,0.0,2.0,34,0.00,,---,0.00,VWS V13.01,2013-05-25 19:05:00,
2013-05-25 14:10:00,87.2,54.6,30.18,East,85,0.0,2.0,33,0.00,,---,0.00,VWS V13.01,2013-05-25 19:10:00,
2013-05-25 14:15:00,87.7,55.1,30.18,East,85,0.0,1.0,33,0.00,,---,0.00,VWS V13.01,2013-05-25 19:15:00,
2013-05-25 14:20:00,87.4,53.1,30.18,East,85,0.0,1.0,31,0.00,,---,0.00,VWS V13.01,2013-05-25 19:20:00,
2013-05-25 14:25:00,86.5,53.2,30.18,NW,324,0.0,4.0,32,0.00,,---,0.00,VWS V13.01,2013-05-25 19:25:00,
2013-05-25 14:30:00,86.8,52.6,30.18,NW,323,1.0,1.0,31,0.00,,---,0.00,VWS V13.01,2013-05-25 19:30:00,
2013-05-25 14:35:00,87.5,52.3,30.17,WSW,249,1.0,5.0,30,0.00,,---,0.00,VWS V13.01,2013-05-25 19:35:00,
2013-05-25 14:40:00,88.7,58.3,30.17,WSW,245,0.0,3.0,36,0.00,,---,0.00,VWS V13.01,2013-05-25 19:40:00,
2013-05-25 14:45:00,88.2,53.8,30.17,WSW,245,0.0,1.0,31,0.00,,---,0.00,VWS V13.01,2013-05-25 19:45:00,
2013-05-25 14:50:00,88.1,51.9,30.17,WNW,295,2.0,2.0,29,0.00,,---,0.00,VWS V13.01,2013-05-25 19:50:00,
2013-05-25 14:55:00,88.3,53.9,30.16,South,182,0.0,3.0,31,0.00,,---,0.00,VWS V13.01,2013-05-25 19:55:00,
2013-05-25 15:00:00,88.8,55.2,30.16,SSE,153,0.0,5.0,32,0.00,,---,0.00,VWS V13.01,2013-05-25 20:00:00,
2013-05-25 15:05:00,89.1,52.7,30.16,East,98,0.0,4.0,29,0.00,,---,0.00,VWS V13.01,2013-05-25 20:05:00,
2013-05-25 15:10:00,88.4,52.1,30.16,ENE,69,0.0,7.0,29,0.00,,---,0.00,VWS V13.01,2013-05-25 20:10:00,
2013-05-25 15:15:00,88.3,52.0,30.16,NNE,15,2.0,9.0,29,0.00,,---,0.00,VWS V13.01,2013-05-25 20:15:00,
2013-05-25 15:20:00,87.9,51.7,30.16,NNE,24,0.0,7.0,29,0.00,,---,0.00,VWS V13.01,2013-05-25 20:20:00,
2013-05-25 15:25:00,87.6,51.5,30.16,ENE,59,3.0,3.0,29,0.00,,---,0.00,VWS V13.01,2013-05-25 20:25:00,
2013-05-25 15:30:00,88.0,50.8,30.16,NE,38,0.0,4.0,28,0.00,,---,0.00,VWS V13.01,2013-05-25 20:30:00,
2013-05-25 15:35:00,87.6,51.5,30.16,NE,38,1.0,3.0,29,0.00,,---,0.00,VWS V13.01,2013-05-25 20:35:00,
2013-05-25 15:40:00,88.1,52.8,30.16,NE,52,0.0,5.0,30,0.00,,---,0.00,VWS V13.01,2013-05-25 20:40:00,
2013-05-25 15:45:00,87.5,51.4,30.16,NNE,32,3.0,8.0,29,0.00,,---,0.00,VWS V13.01,2013-05-25 20:45:00,
2013-05-25 15:50:00,88.4,51.2,30.16,ENE,72,5.0,9.0,28,0.00,,---,0.00,VWS V13.01,2013-05-25 20:50:00,
2013-05-25 15:55:00,88.6,52.3,30.15,NNE,15,1.0,7.0,29,0.00,,---,0.00,VWS V13.01,2013-05-25 20:55:00,
2013-05-25 16:00:00,88.1,51.9,30.16,NNE,30,0.0,9.0,29,0.00,,---,0.00,VWS V13.01,2013-05-25 21:00:00,
2013-05-25 16:05:00,87.7,52.5,30.15,ENE,61,0.0,3.0,30,0.00,,---,0.00,VWS V13.01,2013-05-25 21:05:00,
2013-05-25 16:10:00,87.8,52.5,30.15,NE,37,0.0,5.0,30,0.00,,---,0.00,VWS V13.01,2013-05-25 21:10:00,
2013-05-25 16:15:00,87.3,53.9,30.15,NE,34,0.0,2.0,32,0.00,,---,0.00,VWS V13.01,2013-05-25 21:15:00,
2013-05-25 16:20:00,87.0,52.7,30.15,NNE,21,0.0,7.0,31,0.00,,---,0.00,VWS V13.01,2013-05-25 21:20:00,
2013-05-25 16:25:00,86.5,53.2,30.15,ENE,57,0.0,5.0,32,0.00,,---,0.00,VWS V13.01,2013-05-25 21:25:00,
2013-05-25 16:30:00,86.5,54.0,30.15,North,5,0.0,5.0,33,0.00,,---,0.00,VWS V13.01,2013-05-25 21:30:00,
2013-05-25 16:35:00,86.2,52.0,30.15,ENE,73,1.0,4.0,31,0.00,,---,0.00,VWS V13.01,2013-05-25 21:35:00,
2013-05-25 16:40:00,87.3,52.1,30.16,NNE,14,4.0,6.0,30,0.00,,---,0.00,VWS V13.01,2013-05-25 21:40:00,
2013-05-25 16:45:00,87.4,52.2,30.16,NNE,24,0.0,7.0,30,0.00,,---,0.00,VWS V13.01,2013-05-25 21:45:00,
2013-05-25 16:50:00,87.3,53.0,30.16,NNE,26,0.0,4.0,31,0.00,,---,0.00,VWS V13.01,2013-05-25 21:50:00,
2013-05-25 16:55:00,86.8,52.6,30.16,East,91,0.0,1.0,31,0.00,,---,0.00,VWS V13.01,2013-05-25 21:55:00,
2013-05-25 17:00:00,86.5,53.2,30.16,SE,145,0.0,1.0,32,0.00,,---,0.00,VWS V13.01,2013-05-25 22:00:00,
2013-05-25 17:05:00,86.2,56.9,30.16,SE,145,0.0,1.0,37,0.00,,---,0.00,VWS V13.01,2013-05-25 22:05:00,
2013-05-25 17:10:00,86.3,56.2,30.16,South,188,0.0,3.0,36,0.00,,---,0.00,VWS V13.01,2013-05-25 22:10:00,
2013-05-25 17:15:00,86.0,56.7,30.16,East,79,0.0,1.0,37,0.00,,---,0.00,VWS V13.01,2013-05-25 22:15:00,
2013-05-25 17:20:00,85.4,56.2,30.16,ENE,78,0.0,1.0,37,0.00,,---,0.00,VWS V13.01,2013-05-25 22:20:00,
2013-05-25 17:25:00,84.8,55.7,30.16,SE,135,0.0,2.0,37,0.00,,---,0.00,VWS V13.01,2013-05-25 22:25:00,
2013-05-25 17:30:00,84.2,56.6,30.16,SE,132,0.0,1.0,39,0.00,,---,0.00,VWS V13.01,2013-05-25 22:30:00,
2013-05-25 17:35:00,84.5,56.1,30.16,East,93,0.0,4.0,38,0.00,,---,0.00,VWS V13.01,2013-05-25 22:35:00,
2013-05-25 17:40:00,84.5,56.8,30.16,ESE,118,0.0,2.0,39,0.00,,---,0.00,VWS V13.01,2013-05-25 22:40:00,
2013-05-25 17:45:00,83.6,56.8,30.16,SW,225,0.0,1.0,40,0.00,,---,0.00,VWS V13.01,2013-05-25 22:45:00,
2013-05-25 17:50:00,83.2,57.8,30.16,SW,225,0.0,4.0,42,0.00,,---,0.00,VWS V13.01,2013-05-25 22:50:00,
2013-05-25 17:55:00,83.0,57.6,30.16,SW,225,0.0,1.0,42,0.00,,---,0.00,VWS V13.01,2013-05-25 22:55:00,
2013-05-25 18:00:00,82.8,57.4,30.17,SW,225,0.0,3.0,42,0.00,,---,0.00,VWS V13.01,2013-05-25 23:00:00,
2013-05-25 18:05:00,82.7,58.0,30.17,SW,225,0.0,0.0,43,0.00,,---,0.00,VWS V13.01,2013-05-25 23:05:00,
2013-05-25 18:10:00,82.4,57.7,30.16,SW,223,0.0,3.0,43,0.00,,---,0.00,VWS V13.01,2013-05-25 23:10:00,
2013-05-25 18:15:00,82.2,57.5,30.16,SW,223,0.0,4.0,43,0.00,,---,0.00,VWS V13.01,2013-05-25 23:15:00,
2013-05-25 18:20:00,81.9,57.2,30.16,SW,234,0.0,4.0,43,0.00,,---,0.00,VWS V13.01,2013-05-25 23:20:00,
2013-05-25 18:25:00,81.4,57.4,30.16,SSE,155,0.0,1.0,44,0.00,,---,0.00,VWS V13.01,2013-05-25 23:25:00,
2013-05-25 18:30:00,80.9,57.6,30.17,SSE,155,0.0,0.0,45,0.00,,---,0.00,VWS V13.01,2013-05-25 23:30:00,
2013-05-25 18:35:00,80.5,57.2,30.17,SSE,160,0.0,1.0,45,0.00,,---,0.00,VWS V13.01,2013-05-25 23:35:00,
2013-05-25 18:40:00,80.3,57.0,30.17,SSW,202,0.0,1.0,45,0.00,,---,0.00,VWS V13.01,2013-05-25 23:40:00,
2013-05-25 18:45:00,79.9,56.7,30.16,SSW,203,0.0,1.0,45,0.00,,---,0.00,VWS V13.01,2013-05-25 23:45:00,
2013-05-25 18:50:00,79.6,57.0,30.16,South,173,0.0,5.0,46,0.00,,---,0.00,VWS V13.01,2013-05-25 23:50:00,
2013-05-25 18:55:00,79.5,56.9,30.17,SW,227,0.0,2.0,46,0.00,,---,0.00,VWS V13.01,2013-05-25 23:55:00,
2013-05-25 19:00:00,79.6,57.0,30.17,SW,227,0.0,1.0,46,0.00,,---,0.00,VWS V13.01,2013-05-26 00:00:00,
2013-05-25 19:05:00,79.5,56.9,30.16,SW,223,3.0,3.0,46,0.00,,---,0.00,VWS V13.01,2013-05-26 00:05:00,
2013-05-25 19:10:00,79.3,56.8,30.17,WSW,238,0.0,0.0,46,0.00,,---,0.00,VWS V13.01,2013-05-26 00:10:00,
2013-05-25 19:15:00,79.2,56.7,30.17,WSW,246,0.0,3.0,46,0.00,,---,0.00,VWS V13.01,2013-05-26 00:15:00,
2013-05-25 19:20:00,79.0,57.7,30.17,WSW,246,0.0,0.0,48,0.00,,---,0.00,VWS V13.01,2013-05-26 00:20:00,
2013-05-25 19:25:00,78.5,57.2,30.17,SSW,209,0.0,1.0,48,0.00,,---,0.00,VWS V13.01,2013-05-26 00:25:00,
2013-05-25 19:30:00,78.0,57.3,30.17,SSW,209,0.0,0.0,49,0.00,,---,0.00,VWS V13.01,2013-05-26 00:30:00,
2013-05-25 19:35:00,77.4,56.8,30.16,SSW,207,0.0,1.0,49,0.00,,---,0.00,VWS V13.01,2013-05-26 00:35:00,
2013-05-25 19:40:00,76.9,56.3,30.16,SSW,207,0.0,1.0,49,0.00,,---,0.00,VWS V13.01,2013-05-26 00:40:00,
2013-05-25 19:45:00,76.6,56.6,30.16,SSW,207,0.0,1.0,50,0.00,,---,0.00,VWS V13.01,2013-05-26 00:45:00,
2013-05-25 19:50:00,76.0,56.6,30.16,SSW,207,0.0,0.0,51,0.00,,---,0.00,VWS V13.01,2013-05-26 00:50:00,
2013-05-25 19:55:00,75.4,56.6,30.16,SSW,207,0.0,0.0,52,0.00,,---,0.00,VWS V13.01,2013-05-26 00:55:00,
2013-05-25 20:00:00,75.0,56.7,30.17,SSW,207,0.0,0.0,53,0.00,,---,0.00,VWS V13.01,2013-05-26 01:00:00,
2013-05-25 20:05:00,74.6,56.9,30.17,SSW,207,0.0,0.0,54,0.00,,---,0.00,VWS V13.01,2013-05-26 01:05:00,
2013-05-25 20:10:00,74.3,56.1,30.17,SSW,207,0.0,0.0,53,0.00,,---,0.00,VWS V13.01,2013-05-26 01:10:00,
2013-05-25 20:15:00,74.2,56.0,30.17,SSW,207,0.0,0.0,53,0.00,,---,0.00,VWS V13.01,2013-05-26 01:15:00,
2013-05-25 20:20:00,74.0,56.3,30.17,SSW,207,0.0,0.0,54,0.00,,---,0.00,VWS V13.01,2013-05-26 01:20:00,
2013-05-25 20:25:00,73.4,56.8,30.17,SSW,207,0.0,0.0,56,0.00,,---,0.00,VWS V13.01,2013-05-26 01:25:00,
2013-05-25 20:30:00,73.0,55.9,30.17,SSW,207,0.0,0.0,55,0.00,,---,0.00,VWS V13.01,2013-05-26 01:30:00,
2013-05-25 20:35:00,72.9,55.8,30.17,SSW,207,0.0,0.0,55,0.00,,---,0.00,VWS V13.01,2013-05-26 01:35:00,
2013-05-25 20:40:00,72.8,55.7,30.17,SSW,207,0.0,0.0,55,0.00,,---,0.00,VWS V13.01,2013-05-26 01:40:00,
2013-05-25 20:45:00,72.6,57.5,30.17,SSW,207,0.0,0.0,59,0.00,,---,0.00,VWS V13.01,2013-05-26 01:45:00,
2013-05-25 20:50:00,71.9,56.3,30.18,SSW,207,0.0,0.0,58,0.00,,---,0.00,VWS V13.01,2013-05-26 01:50:00,
2013-05-25 20:55:00,71.5,56.0,30.18,SSW,207,0.0,0.0,58,0.00,,---,0.00,VWS V13.01,2013-05-26 01:55:00,
2013-05-25 21:00:00,71.4,55.9,30.18,SSW,207,0.0,0.0,58,0.00,,---,0.00,VWS V13.01,2013-05-26 02:00:00,
2013-05-25 21:05:00,71.4,55.9,30.18,SSW,207,0.0,0.0,58,0.00,,---,0.00,VWS V13.01,2013-05-26 02:05:00,
2013-05-25 21:10:00,71.5,55.5,30.18,SSW,207,0.0,0.0,57,0.00,,---,0.00,VWS V13.01,2013-05-26 02:10:00,
2013-05-25 21:15:00,71.1,57.9,30.18,SSW,207,0.0,0.0,63,0.00,,---,0.00,VWS V13.01,2013-05-26 02:15:00,
2013-05-25 21:20:00,70.4,56.8,30.18,SSW,207,0.0,0.0,62,0.00,,---,0.00,VWS V13.01,2013-05-26 02:20:00,
2013-05-25 21:25:00,69.9,55.8,30.18,SSW,207,0.0,0.0,61,0.00,,---,0.00,VWS V13.01,2013-05-26 02:25:00,
2013-05-25 21:30:00,69.8,56.2,30.18,SSW,207,0.0,0.0,62,0.00,,---,0.00,VWS V13.01,2013-05-26 02:30:00,
2013-05-25 21:35:00,69.6,55.6,30.19,SSW,207,0.0,0.0,61,0.00,,---,0.00,VWS V13.01,2013-05-26 02:35:00,
2013-05-25 21:40:00,69.5,56.8,30.19,SSW,207,0.0,0.0,64,0.00,,---,0.00,VWS V13.01,2013-05-26 02:40:00,
2013-05-25 21:45:00,69.0,56.3,30.19,SSW,207,0.0,0.0,64,0.00,,---,0.00,VWS V13.01,2013-05-26 02:45:00,
2013-05-25 21:50:00,68.7,56.0,30.19,SSW,207,0.0,0.0,64,0.00,,---,0.00,VWS V13.01,2013-05-26 02:50:00,
2013-05-25 21:55:00,68.9,56.2,30.19,SSW,207,0.0,0.0,64,0.00,,---,0.00,VWS V13.01,2013-05-26 02:55:00,
2013-05-25 22:00:00,68.9,55.4,30.20,SSW,207,0.0,0.0,62,0.00,,---,0.00,VWS V13.01,2013-05-26 03:00:00,
2013-05-25 22:05:00,68.7,56.9,30.20,SSW,207,0.0,0.0,66,0.00,,---,0.00,VWS V13.01,2013-05-26 03:05:00,
2013-05-25 22:10:00,68.1,55.9,30.20,SSW,207,0.0,0.0,65,0.00,,---,0.00,VWS V13.01,2013-05-26 03:10:00,
2013-05-25 22:15:00,67.8,56.5,30.20,SSW,207,0.0,0.0,67,0.00,,---,0.00,VWS V13.01,2013-05-26 03:15:00,
2013-05-25 22:20:00,67.7,56.0,30.20,SSW,207,0.0,0.0,66,0.00,,---,0.00,VWS V13.01,2013-05-26 03:20:00,
2013-05-25 22:25:00,67.6,55.8,30.20,SSW,207,0.0,0.0,66,0.00,,---,0.00,VWS V13.01,2013-05-26 03:25:00,
2013-05-25 22:30:00,67.3,55.6,30.20,SSW,207,0.0,0.0,66,0.00,,---,0.00,VWS V13.01,2013-05-26 03:30:00,
2013-05-25 22:35:00,67.1,55.0,30.20,SSW,207,0.0,0.0,65,0.00,,---,0.00,VWS V13.01,2013-05-26 03:35:00,
2013-05-25 22:40:00,67.4,56.5,30.19,SSW,207,0.0,0.0,68,0.00,,---,0.00,VWS V13.01,2013-05-26 03:40:00,
2013-05-25 22:45:00,67.0,55.3,30.19,SSW,207,0.0,0.0,66,0.00,,---,0.00,VWS V13.01,2013-05-26 03:45:00,
2013-05-25 22:50:00,66.7,55.0,30.19,SSW,207,0.0,0.0,66,0.00,,---,0.00,VWS V13.01,2013-05-26 03:50:00,
2013-05-25 22:55:00,66.8,55.1,30.20,SSW,207,0.0,0.0,66,0.00,,---,0.00,VWS V13.01,2013-05-26 03:55:00,
2013-05-25 23:00:00,66.5,54.8,30.19,SSW,207,0.0,0.0,66,0.00,,---,0.00,VWS V13.01,2013-05-26 04:00:00,
2013-05-25 23:01:00,66.5,54.8,30.20,SSW,207,0.0,0.0,66,0.00,,---,0.00,VWS V13.01,2013-05-26 04:01:00,
2013-05-25 23:06:00,66.1,55.2,30.20,SSW,207,0.0,0.0,68,0.00,,---,0.00,VWS V13.01,2013-05-26 04:06:00,
2013-05-25 23:11:00,65.8,55.4,30.19,SSW,207,0.0,0.0,69,0.00,,---,0.00,VWS V13.01,2013-05-26 04:11:00,
2013-05-25 23:16:00,65.9,55.8,30.19,SSW,207,0.0,0.0,70,0.00,,---,0.00,VWS V13.01,2013-05-26 04:16:00,
2013-05-25 23:21:00,65.6,56.7,30.19,SSW,207,0.0,0.0,73,0.00,,---,0.00,VWS V13.01,2013-05-26 04:21:00,
2013-05-25 23:26:00,65.2,56.7,30.19,SSW,207,0.0,0.0,74,0.00,,---,0.00,VWS V13.01,2013-05-26 04:26:00,
2013-05-25 23:31:00,64.9,56.8,30.19,SSW,207,0.0,0.0,75,0.00,,---,0.00,VWS V13.01,2013-05-26 04:31:00,
2013-05-25 23:36:00,64.9,56.8,30.19,SSW,207,0.0,0.0,75,0.00,,---,0.00,VWS V13.01,2013-05-26 04:36:00,
2013-05-25 23:41:00,65.0,56.5,30.19,SSW,207,0.0,0.0,74,0.00,,---,0.00,VWS V13.01,2013-05-26 04:41:00,
2013-05-25 23:46:00,64.7,56.6,30.19,SSW,207,0.0,0.0,75,0.00,,---,0.00,VWS V13.01,2013-05-26 04:46:00,
2013-05-25 23:51:00,64.1,55.7,30.19,SSW,207,0.0,0.0,74,0.00,,---,0.00,VWS V13.01,2013-05-26 04:51:00,
2013-05-25 23:56:00,64.1,56.0,30.19,SSW,207,0.0,0.0,75,0.00,,---,0.00,VWS V13.01,2013-05-26 04:56:00,